Tracking 35331 objects as of 15-Sep-2026
HD Live streaming from Space Station
objects crossing your sky now

SALYUT 7 DEB


SALYUT 7 DEB is no longer on orbit


NORAD ID: 15274
Int'l Code: 1982-033DJ
Launch date: April 19, 1982
Source: Commonwealth of Independent States (former USSR) (CIS)
Launch site: TYURATAM MISSILE AND SPACE COMPLEX (TTMTR)
Decay date: 1984-12-24

Note: This is SATELLITE DEBRIS
Your satellite tracking list
Your tracking list is empty




NASA's NSSDC Master Catalog

Two Line Element Set (TLE):
1 15274U 82033 DJ 84358.80655042  .05437301 +54509-4 +11235-2 0  9997
2 15274 051.6114 111.1121 0006703 299.7827 065.5549 16.30258620154891
Source of the keplerian elements: AFSPC